Flag for U.S.A. Weather past 2 weeks in Temple, Texas, U.S.A.

Now
64 °F

Strong thunderstorms. Fog.


Feels Like: 64 °F
Forecast: 71 / 81 °F
Wind: 20 mph from Northwest

Location: Fort Hood AAF Airport

Current Time: May 29, 2015 at 1:49:29 AM

Latest Report: May 29, 2015 at 1:03 AM


Visibility: 1 mi

Pressure: 29.99 "Hg

Humidity: 94%

Dew point: 63 °F

Location of TempleLocation

Historic Weather in Temple — Graph

°F

Temple temperature yesterday

Maximum temperature yesterday: 83 °F (at 4:58 PM)
Minimum temperature yesterday: 70 °F (at 6:58 AM)
Average temperature yesterday: 77 °F

Past Weeks' High & Low Weather Summary

 TemperatureHumidityPressure
High88 °F (May 26, 4:58 PM)100% (May 14, 5:03 AM)30.15 "Hg (May 14, 5:03 AM)
Low60 °F (May 21, 10:58 PM)54% (May 20, 3:58 PM)29.74 "Hg (May 16, 5:58 PM)
Average73 °F87%29.96 "Hg
* Reported May 14 12:58 AM — May 29 12:58 AM, Temple, Weather by CustomWeather, © 2015

Note: Actual official high and low records may vary slightly from our data, if they occured in-between our weather recording intervals... More about our weather records

Advertising

Temple weather history for previous 24 hours

 ConditionsComfort  
Time TempWeatherWind HumidityBarometerVisibility
12:58 AM
Fri, May 29
64 °FThunderstorms. Fog.18 mph94%29.97 "Hg1 mi
11:58 PM
Thu, May 28
76 °FMild.14 mph87%29.92 "Hg10 mi
10:58 PM77 °FWarm.10 mph85%29.92 "Hg10 mi
9:58 PM77 °FWarm.12 mph86%29.89 "Hg10 mi
8:58 PM79 °FWarm.10 mph85%29.88 "Hg10 mi
7:58 PM81 °FWarm.13 mph79%29.86 "Hg10 mi
6:58 PM82 °FWarm.10 mph73%29.88 "Hg10 mi
5:58 PM82 °FWarm.14 mph73%29.89 "Hg10 mi
4:58 PM83 °FWarm.17 mph73%29.90 "Hg10 mi
3:58 PM81 °FWarm.16 mph79%29.94 "Hg10 mi
2:58 PM79 °FThundershowers. Cloudy.17 mph79%29.98 "Hg10 mi
1:58 PM82 °FWarm.14 mph77%29.99 "Hg10 mi
12:58 PM80 °FWarm.10 mph83%30.04 "Hg10 mi
12:03 PM79 °FPartly sunny.12 mph84%30.08 "Hg10 mi
10:58 AM74 °FMostly cloudy.9 mph93%30.06 "Hg8 mi
9:58 AM75 °FMostly cloudy.9 mph91%30.04 "Hg10 mi
8:58 AM72 °FLow clouds.9 mph96%30.03 "Hg8 mi
7:58 AM71 °FFog.9 mph97%30.02 "Hg4 mi
6:58 AM70 °FFog.7 mph98%30.02 "Hg5 mi
5:58 AM71 °FClear.7 mph95%30.01 "Hg10 mi
4:58 AM72 °FPassing clouds.6 mph91%30.01 "Hg10 mi
3:58 AM73 °FOvercast.8 mph87%30.01 "Hg10 mi
2:58 AM73 °FOvercast.8 mph91%30.00 "Hg10 mi
1:58 AM74 °FOvercast.13 mph91%30.00 "Hg10 mi
1:03 AM73 °FPassing clouds.14 mph94%30.04 "Hg10 mi
Weather by CustomWeather, © 2015

See weather overviewHow to use our weather pages